ECMWFFLT2_850_spd_096.txt.gz
Wind_Speed
12 16 15 12 9 6 7 9 10 9 8 8 7 7 7 8 7 4 5 6 3 4 6 6 6 6 7 9 12 14 16 20 24 27 28 26 22 21 21 21 22 24 23 22 22 21 20 20 19 19 20 21 22 22 21 20 19 18 17 18 18 17 16
13 16 16 16 15 10 5 8 10 8 5 6 6 6 7 8 8 4 6 8 6 5 4 3 5 7 8 9 12 14 15 19 23 24 28 30 25 21 20 19 21 23 22 22 21 20 20 19 18 19 20 21 22 22 21 21 20 19 18 18 17 17 16
13 14 13 13 17 16 9 5 8 10 7 7 7 6 7 8 8 6 7 8 8 6 3 5 6 7 8 10 11 13 15 18 22 23 24 26 24 21 20 20 20 21 21 21 21 20 20 20 19 19 21 21 23 23 22 22 21 20 18 17 17 18 17
11 11 10 10 12 15 11 8 7 9 7 8 8 7 7 7 7 7 8 8 7 4 2 5 7 7 9 11 11 11 14 17 21 23 23 23 22 21 20 20 21 21 21 20 19 20 22 22 20 20 21 22 22 23 23 22 21 21 19 18 18 18 17
9 9 10 11 11 12 11 8 8 9 7 7 7 8 8 7 7 6 7 8 4 2 4 4 7 7 7 10 9 9 12 16 18 21 23 23 23 22 20 18 18 19 20 18 18 21 23 22 21 21 23 23 22 22 23 22 21 21 20 19 19 18 17
9 10 12 12 10 12 13 10 9 10 9 8 7 8 8 7 7 6 6 7 2 4 3 2 6 6 6 9 10 8 11 14 16 18 21 23 24 23 22 20 17 16 18 17 15 18 21 20 21 24 24 23 22 23 23 21 21 21 21 20 20 18 17
4 5 9 7 6 9 14 11 10 10 9 9 8 8 8 7 8 7 6 7 1 5 1 1 4 4 5 9 10 9 10 13 15 17 19 22 24 24 23 22 18 17 19 19 16 15 15 16 19 22 22 21 21 22 22 21 20 20 21 21 20 19 18
1 4 6 6 5 8 12 12 11 10 10 11 10 9 7 7 9 8 6 8 3 5 2 2 4 4 4 7 10 10 10 11 13 16 18 19 22 24 23 21 19 19 21 22 21 17 14 15 17 18 18 19 19 20 20 20 19 20 21 21 21 20 19
7 6 7 9 9 9 9 9 9 7 8 11 10 8 5 6 10 11 9 8 3 5 4 5 7 6 5 7 8 8 9 10 12 15 17 17 18 21 22 21 21 23 23 23 24 23 20 18 17 14 13 14 16 18 19 18 18 19 20 21 21 21 20
8 7 6 6 8 10 8 5 5 6 9 10 8 6 5 6 8 10 10 6 4 7 6 7 8 8 7 9 9 8 8 9 11 13 16 16 15 16 18 18 19 21 22 21 22 22 22 22 20 18 16 15 16 17 17 17 17 18 18 19 20 21 21
1 2 2 1 3 8 8 6 6 8 9 10 8 8 8 7 7 8 10 8 3 7 10 9 10 10 8 9 11 10 8 9 10 10 12 14 14 15 16 15 15 16 17 19 19 20 21 22 21 22 23 22 20 18 18 19 20 20 19 18 19 21 21
6 5 5 3 3 6 6 7 7 7 8 9 11 10 6 5 7 7 8 10 9 7 11 11 10 10 8 8 10 11 10 10 11 10 10 12 13 14 14 13 13 14 15 17 19 20 21 21 21 22 23 23 23 22 22 22 22 23 22 20 21 22 22
8 7 6 6 7 7 6 6 5 5 7 8 11 8 2 2 5 3 1 6 6 5 11 11 9 10 9 8 9 10 10 10 11 11 12 12 13 13 14 14 13 13 15 17 17 17 18 19 20 21 22 23 23 23 24 24 23 22 23 23 24 25 26
9 7 6 6 8 10 9 9 8 5 5 4 3 1 5 3 1 2 3 5 6 6 8 10 10 10 11 10 9 8 9 9 10 12 12 12 13 13 14 15 14 11 13 15 14 14 15 15 15 17 19 20 21 21 21 21 20 19 20 20 22 24 26
8 7 6 6 8 11 13 12 11 8 6 6 6 6 7 4 3 4 4 8 9 6 8 11 11 11 11 11 9 8 8 9 10 11 11 12 12 11 11 13 11 9 8 9 9 10 10 9 12 16 17 17 18 19 20 20 19 19 19 19 21 23 24
6 6 3 5 7 9 13 14 13 11 8 7 8 9 8 7 5 2 4 5 5 5 9 11 10 10 10 10 10 10 9 9 9 10 11 12 12 10 9 9 10 9 7 6 6 5 6 7 10 12 12 12 14 17 19 19 19 19 20 20 21 21 22
5 4 3 1 6 7 7 10 10 9 8 8 9 9 10 10 8 4 1 2 4 8 9 9 9 10 10 10 11 11 10 9 10 9 10 13 13 12 11 10 9 9 8 7 6 6 6 8 9 9 9 10 10 13 15 16 17 18 19 20 20 19 19
3 1 6 6 5 6 4 5 6 7 7 9 10 11 12 10 8 4 3 3 5 8 8 8 10 10 10 10 10 11 11 10 10 10 10 11 13 12 11 9 7 7 7 7 7 7 6 5 7 8 8 8 9 11 13 14 16 17 17 18 18 19 19
1 3 5 4 4 5 5 4 6 6 4 6 10 13 14 11 9 8 6 5 6 7 7 10 11 9 10 11 9 9 10 9 10 10 9 10 11 11 10 9 8 7 7 7 6 5 5 6 7 7 7 8 9 11 12 13 14 15 16 18 18 18 18
1 1 2 2 3 4 4 4 7 6 2 2 5 10 14 12 9 9 8 6 6 6 11 14 12 11 13 12 10 9 9 8 8 8 8 9 11 10 10 9 9 8 7 6 5 4 5 6 6 7 7 9 12 13 14 13 13 14 15 16 16 17 16
2 3 1 1 2 4 4 3 6 6 4 5 4 5 10 11 9 8 7 6 6 6 11 13 12 13 13 11 9 9 8 8 8 8 8 9 10 10 10 9 9 9 8 6 4 5 7 8 7 6 5 7 10 13 14 13 14 14 14 13 13 13 13
2 4 4 2 4 4 3 4 5 5 4 6 6 1 6 9 9 7 5 4 5 6 8 11 11 11 9 6 6 8 9 9 9 10 10 10 10 11 10 10 10 9 8 6 4 4 8 11 11 10 8 6 8 11 12 12 12 12 14 14 13 12 12
4 5 6 5 4 1 4 5 6 7 4 3 5 2 3 8 9 5 4 3 4 5 7 10 10 7 5 5 7 9 11 12 11 12 12 11 11 11 10 10 11 11 10 9 8 9 11 13 13 11 9 8 8 10 11 10 9 9 10 12 11 10 10
5 6 5 3 2 3 6 6 8 8 4 1 5 4 2 7 9 5 3 3 3 3 5 8 6 2 0 5 10 11 11 12 12 12 13 13 11 11 10 10 12 13 12 12 12 13 14 14 12 11 9 8 8 10 11 10 9 8 9 10 10 9 10
5 6 5 3 3 4 5 7 8 7 2 3 3 0 2 6 8 5 2 2 3 3 4 5 2 3 4 9 13 13 12 11 11 10 12 12 13 12 12 13 13 12 12 12 12 13 14 13 11 9 7 7 8 10 11 10 10 10 10 11 11 11 11
2 4 4 3 4 4 7 9 5 4 3 2 2 3 2 5 6 4 3 1 2 3 5 4 3 6 10 12 14 13 12 11 11 10 11 12 12 13 13 14 14 11 10 10 11 11 12 11 8 6 5 5 7 8 7 8 9 9 9 10 10 9 8
1 4 3 2 3 5 11 10 3 3 4 3 3 3 3 4 4 2 2 2 1 3 5 6 6 10 13 13 13 12 10 9 9 10 11 11 11 12 13 14 14 12 11 10 10 10 9 7 6 5 4 4 6 6 7 8 9 8 8 8 8 6 4
2 2 3 2 3 6 11 9 5 6 7 5 4 4 6 7 6 2 1 1 0 1 4 6 8 12 13 13 14 14 11 10 9 10 10 11 11 12 12 13 13 12 10 10 9 8 7 5 4 3 3 4 5 5 6 8 8 8 8 7 7 6 4
3 3 5 5 5 5 7 8 8 7 6 6 6 6 7 8 8 6 4 2 1 1 2 5 8 9 10 11 14 15 14 13 11 10 11 11 12 13 13 13 13 12 10 8 6 4 3 2 1 1 3 4 4 4 5 7 7 7 7 7 6 5 4
4 5 5 6 6 6 6 6 6 6 6 6 7 7 8 9 9 7 5 3 2 0 1 3 5 7 9 12 13 14 14 15 14 13 13 13 13 14 13 12 11 11 9 7 4 3 2 1 0 1 3 4 3 4 5 5 6 6 6 5 5 4 4
3 3 6 6 6 6 5 4 5 6 6 6 6 7 8 8 8 7 6 4 2 0 1 2 3 4 8 11 13 14 16 17 16 16 15 15 15 14 13 13 11 11 9 6 3 1 1 1 1 2 3 3 4 4 5 5 5 5 5 4 4 3 3
2 4 7 6 5 5 5 4 4 5 5 5 6 7 7 8 8 7 7 5 3 1 0 2 3 5 8 10 13 17 19 17 15 16 17 17 16 15 15 15 13 11 9 5 2 1 1 1 2 2 2 2 3 3 4 3 3 4 4 3 3 3 4
2 4 6 6 4 6 6 5 5 6 5 5 6 6 6 7 7 7 6 5 3 2 1 1 3 5 8 9 13 17 18 15 14 17 18 19 18 17 16 15 13 10 8 5 2 0 1 2 2 2 2 3 3 3 2 2 3 4 4 3 3 3 2
2 3 6 6 2 2 6 7 6 6 5 5 5 6 6 6 7 7 6 5 3 2 1 3 4 5 7 9 12 16 17 15 16 17 18 19 20 19 18 16 14 12 10 7 3 1 1 2 3 3 3 3 3 2 3 4 5 5 5 4 4 3 1
2 5 6 5 2 1 5 7 5 5 5 4 4 5 5 5 5 5 5 5 4 3 1 2 4 5 6 8 11 13 15 16 18 19 20 20 21 21 20 19 17 15 12 9 6 3 1 2 3 2 2 2 2 2 4 6 6 6 5 4 3 3 2
2 3 4 4 2 1 5 6 5 4 3 2 4 4 4 4 4 4 4 4 4 4 3 0 3 5 6 7 9 11 12 15 18 21 22 20 19 21 22 21 19 17 13 10 8 7 4 3 2 1 1 3 3 3 4 5 4 5 5 3 2 1 2
1 3 4 4 3 3 5 5 4 3 1 0 1 2 2 2 3 4 4 3 4 4 3 2 1 2 4 6 8 9 10 11 15 20 22 20 19 21 23 22 20 17 12 10 10 9 6 4 3 3 4 4 3 3 3 3 3 3 3 2 1 1 1

ECMWFFLT2_850_spd_102.txt.gz
Wind_Speed
13 15 15 12 9 5 4 7 9 7 5 4 5 3 8 8 5 3 4 4 4 4 3 2 2 5 4 8 17 20 23 26 27 29 28 26 27 29 27 29 30 30 30 28 28 29 27 26 25 25 25 25 25 24 23 23 23 22 20 19 18 17 16
11 16 16 14 13 9 3 5 7 7 5 3 4 4 5 7 5 3 4 4 4 3 2 4 4 1 4 5 13 18 21 25 27 28 29 27 26 28 28 29 29 29 30 29 28 29 28 27 26 25 26 26 25 23 23 23 23 23 22 20 19 18 17
10 13 12 11 14 15 9 4 3 5 6 3 3 3 4 5 4 2 4 5 3 2 2 5 5 3 7 10 13 16 19 22 25 27 28 26 23 22 24 28 28 28 30 30 29 29 28 27 26 26 25 26 25 23 23 23 22 23 22 20 19 18 18
8 9 8 8 10 12 10 6 4 6 5 3 3 3 4 4 1 1 0 3 2 3 3 8 6 7 12 14 13 14 19 24 26 26 26 25 24 21 22 27 30 29 29 29 29 29 28 27 26 27 26 24 24 22 21 22 22 21 21 20 19 18 17
6 7 8 8 9 10 9 7 7 7 6 6 5 5 5 3 2 2 2 0 1 3 3 7 12 13 11 13 14 13 18 23 23 25 25 25 25 26 26 29 30 30 29 29 29 28 28 28 26 27 26 23 23 22 21 21 21 20 20 19 19 18 16
6 7 9 10 12 10 10 9 8 7 6 8 7 6 6 5 3 3 3 1 1 2 3 2 9 11 4 10 13 14 17 19 21 22 22 24 26 28 30 27 25 27 25 24 28 27 26 26 25 26 26 24 23 21 21 21 19 19 20 19 18 18 16
8 12 8 13 14 14 13 12 10 8 7 7 7 6 5 5 4 4 3 2 2 1 4 1 1 5 6 8 12 13 16 18 19 19 20 24 23 19 20 18 19 24 20 19 26 26 21 23 25 25 22 22 25 23 21 22 20 19 19 19 18 18 18
10 16 11 12 14 14 13 12 12 10 9 9 8 6 4 3 3 2 0 0 1 1 1 4 8 7 2 10 13 15 16 17 18 18 21 25 19 13 14 14 18 22 17 16 23 24 22 22 24 24 19 18 23 24 22 22 21 20 19 19 19 18 18
6 8 8 9 12 9 9 9 12 13 12 13 11 9 3 3 3 3 2 1 3 2 1 7 12 6 7 5 10 14 14 16 18 20 25 25 17 15 17 16 18 21 18 18 22 24 25 23 21 21 18 16 19 21 21 21 20 20 19 19 20 19 19
6 4 3 3 4 7 8 11 13 16 15 15 12 8 5 4 4 5 3 3 7 7 5 8 12 6 2 4 5 9 12 16 17 19 24 23 18 18 19 20 21 21 20 21 21 21 25 25 22 19 19 19 19 19 19 19 16 17 19 19 20 20 20
9 7 8 11 11 7 9 12 15 13 15 14 11 9 6 3 3 3 1 6 10 8 8 9 8 7 6 3 3 4 8 15 17 20 25 26 24 21 20 23 24 22 21 22 20 19 22 24 22 20 21 22 22 19 18 17 15 16 19 19 19 20 19
12 13 13 15 15 12 7 9 14 15 12 14 12 13 6 1 1 2 3 9 11 6 8 10 5 2 6 5 2 5 4 11 15 19 25 27 27 25 23 25 26 23 22 22 21 21 22 21 19 19 20 21 20 17 16 17 17 18 18 19 18 19 18
12 13 14 15 14 12 13 11 14 16 14 12 14 16 12 6 2 6 9 13 13 5 6 11 7 5 6 6 3 2 2 8 13 17 22 25 25 25 26 27 27 26 26 26 24 21 19 20 20 18 18 17 16 15 14 15 17 16 16 17 17 17 18
11 12 13 16 14 12 16 16 13 13 15 15 16 16 15 13 6 14 18 16 15 6 5 10 11 12 11 7 5 5 3 2 9 15 20 21 23 23 23 24 25 25 24 23 23 18 16 20 20 17 16 17 17 18 16 14 14 13 14 15 16 17 16
9 12 13 14 16 16 16 13 8 8 9 10 12 11 10 10 5 13 20 16 12 7 6 9 11 13 12 9 8 8 2 2 3 9 14 14 16 18 19 20 19 19 17 15 15 13 12 15 17 16 16 18 19 20 20 17 16 17 16 14 14 16 17
8 9 7 9 11 10 5 9 15 17 15 15 14 9 6 7 4 7 14 11 7 6 8 9 9 10 10 9 8 8 6 4 4 9 14 15 14 14 15 16 16 15 14 12 11 11 9 9 11 11 12 14 15 15 16 17 16 17 17 16 15 15 16
8 6 7 14 11 2 5 9 14 14 13 13 15 15 17 17 11 2 5 6 6 8 8 8 8 8 8 7 6 7 11 11 9 11 15 15 14 14 15 15 15 15 14 13 12 11 10 9 9 11 11 12 12 11 11 12 13 15 17 19 19 19 19
7 7 4 6 5 1 2 6 8 10 13 15 15 16 17 17 14 9 6 5 5 6 7 9 9 9 10 12 12 12 14 15 14 13 13 12 13 14 16 16 15 15 14 12 12 11 10 7 7 11 13 12 11 11 10 10 11 12 13 15 17 18 20
4 5 5 3 2 1 3 5 7 6 10 13 14 16 17 16 14 11 8 5 4 9 14 15 14 14 15 17 17 16 15 15 15 13 11 14 16 15 15 15 14 13 11 10 9 8 8 6 5 7 9 9 8 9 9 9 10 10 11 12 13 14 15
4 2 2 2 1 2 2 5 5 4 6 10 12 13 13 13 12 10 7 4 5 13 16 14 16 19 20 20 18 16 15 16 15 13 14 17 17 16 15 15 15 14 11 8 6 7 7 5 4 4 5 4 5 5 6 7 8 9 10 11 12 13 14
5 1 2 1 1 2 2 3 5 4 3 6 9 7 8 11 10 8 6 6 4 10 13 12 15 20 20 18 17 16 17 17 17 17 18 20 19 17 16 16 16 16 14 12 10 9 9 8 7 7 7 4 3 4 4 4 4 5 5 6 8 9 12
2 0 2 3 2 2 2 2 5 6 6 4 7 8 7 9 8 9 8 6 8 4 7 12 14 15 14 11 11 15 18 18 19 20 19 18 18 17 15 14 13 14 15 15 13 12 13 13 12 12 11 10 8 6 4 3 2 1 1 2 3 5 9
2 1 1 2 2 2 2 4 5 5 6 6 2 3 6 7 8 11 9 3 5 7 5 4 6 8 8 5 6 12 16 16 17 18 17 17 17 17 15 13 13 14 16 16 14 12 11 11 12 12 12 11 10 10 10 8 7 7 6 5 5 6 7
3 3 2 0 1 2 3 6 6 6 7 8 6 3 4 6 9 12 10 6 6 6 5 7 7 3 4 5 6 9 12 13 14 15 15 16 17 16 15 14 14 15 16 16 14 12 9 9 10 10 10 9 10 11 10 9 9 9 8 7 6 6 6
3 4 3 2 0 4 7 8 9 9 8 6 2 3 2 5 8 12 12 9 7 6 7 6 3 2 5 9 10 10 11 12 13 13 13 13 14 15 17 17 16 15 15 14 14 14 13 12 11 10 10 11 11 12 12 10 10 9 8 7 7 6 5
1 2 3 3 1 5 10 10 9 12 7 0 3 3 3 5 8 11 13 10 7 7 8 8 8 10 12 13 12 11 12 12 13 13 13 13 13 14 16 17 15 13 14 13 13 14 13 12 10 9 9 10 11 12 13 13 12 11 9 8 8 7 6
2 3 3 3 1 4 9 8 6 9 5 5 5 4 6 8 9 10 11 9 8 8 10 12 14 15 15 14 12 11 11 10 12 14 12 10 11 13 13 14 13 13 14 13 13 12 11 10 10 10 10 10 10 11 11 11 11 11 10 10 10 9 8
2 1 2 3 2 4 8 5 4 7 8 7 6 6 9 9 9 9 10 9 9 9 11 13 14 14 14 13 12 11 9 8 10 14 14 12 11 12 12 12 12 12 12 12 12 11 8 8 10 10 10 10 10 10 10 10 10 11 10 10 9 9 8
4 3 4 6 7 7 11 12 11 10 11 11 10 10 11 10 10 9 8 9 9 8 9 11 12 12 12 11 10 10 10 9 10 12 14 14 13 12 12 13 13 12 11 11 11 9 8 8 10 10 10 10 10 10 10 9 9 10 10 10 10 9 8
9 8 8 9 10 10 11 12 12 11 12 12 12 13 13 12 11 10 9 9 9 8 7 8 8 8 9 9 9 9 10 11 11 11 12 13 14 14 13 12 11 10 10 10 10 9 9 9 9 10 10 9 10 11 10 9 9 9 9 9 9 9 9
7 6 7 9 10 10 10 10 11 11 12 12 11 11 12 11 11 11 10 9 9 8 7 7 7 7 7 7 8 8 8 9 10 9 10 12 13 14 13 11 10 9 10 10 10 10 10 9 7 8 8 9 10 11 10 8 8 9 10 9 9 10 10
5 6 9 10 9 9 9 10 10 10 10 10 10 11 11 11 11 11 10 10 9 8 7 6 7 8 8 8 9 8 8 8 8 7 8 10 11 12 13 12 10 10 11 11 10 10 10 8 6 6 7 8 10 10 7 6 7 9 9 8 7 8 8
6 8 10 9 8 8 9 10 10 10 9 9 9 9 10 10 10 10 10 11 10 10 9 8 7 7 9 9 8 8 8 8 8 8 8 9 10 11 12 11 10 10 11 10 9 8 7 6 6 6 6 6 8 8 7 6 7 8 9 9 8 6 5
4 7 9 7 4 6 9 10 9 8 8 8 8 8 9 9 9 9 10 10 10 10 10 9 8 8 8 7 6 8 9 9 8 8 8 8 8 9 10 11 10 11 11 9 7 6 6 5 6 6 6 6 6 6 5 6 7 6 8 10 8 5 6
6 9 9 6 5 9 11 10 8 8 7 7 7 7 7 8 8 8 8 9 9 9 9 9 9 8 6 5 4 7 10 9 8 7 7 7 8 9 10 11 11 11 11 10 8 6 5 4 4 4 5 7 6 3 2 4 5 5 7 9 6 2 5
9 10 8 6 8 12 13 9 8 7 6 6 7 7 7 8 8 8 7 8 8 8 7 8 9 7 6 5 4 5 6 6 7 8 7 7 7 9 9 10 11 11 11 10 8 6 5 4 2 3 6 7 7 4 1 2 3 4 7 9 5 2 2
10 10 9 8 10 12 11 8 8 7 4 5 8 8 7 6 6 6 7 7 7 7 6 7 7 7 7 6 5 4 3 3 4 7 8 7 8 8 8 10 12 12 11 10 9 7 6 5 3 4 6 6 6 5 3 1 2 3 6 8 6 5 3

ECMWFFLT2_850_spd_105.txt.gz
Wind_Speed
10 10 9 8 7 3 1 4 4 4 5 7 4 2 3 2 1 1 1 2 1 1 5 5 4 5 2 8 16 20 24 28 30 30 30 29 28 27 29 31 31 32 32 30 30 32 31 29 29 29 30 28 26 24 23 24 25 24 21 20 20 19 18
10 11 10 9 5 6 3 4 5 4 3 5 3 3 2 2 1 0 2 2 1 1 3 3 3 4 3 2 7 16 22 26 28 30 31 31 30 28 30 33 32 32 32 31 31 31 32 31 29 28 29 28 27 24 22 23 25 25 22 20 20 20 19
9 9 5 7 7 5 5 3 2 4 3 2 2 2 3 3 1 0 3 3 2 2 3 3 4 6 5 3 4 9 16 21 25 28 31 32 30 27 29 32 32 31 32 32 32 32 32 31 29 29 27 26 26 25 22 23 24 23 22 20 19 19 19
6 6 2 2 5 8 7 3 1 3 4 3 2 1 2 3 2 2 1 3 2 3 3 4 7 7 6 5 4 3 11 20 23 25 29 32 30 26 27 28 26 29 31 29 30 33 32 30 29 29 27 25 25 25 22 21 23 23 22 21 19 19 19
1 5 3 4 5 4 4 2 2 2 3 3 3 1 2 4 3 3 2 1 4 4 3 5 7 6 5 6 4 2 6 16 22 25 28 29 23 18 24 27 23 26 29 26 27 31 30 30 29 28 28 27 25 25 22 20 22 23 23 22 20 19 19
3 1 2 4 5 5 5 3 3 3 3 4 3 1 3 3 4 4 3 2 4 3 1 2 4 5 5 6 6 3 5 9 19 25 24 22 18 16 24 30 27 26 26 25 27 30 28 29 30 28 29 28 25 25 22 19 21 23 23 22 21 19 18
6 9 10 9 8 7 6 5 4 4 3 5 4 3 5 4 4 4 2 1 2 1 0 2 4 4 4 4 3 5 6 6 10 16 21 24 27 28 26 27 29 29 25 23 27 29 27 28 29 28 29 28 25 23 21 19 20 22 22 21 20 18 17
6 9 9 9 9 7 3 3 5 5 4 4 5 4 3 3 4 4 3 2 3 2 2 5 7 6 5 4 4 2 3 9 7 7 20 27 29 28 25 25 29 33 29 25 28 29 28 28 28 29 30 29 26 23 21 22 22 21 21 22 21 19 16
5 7 6 6 4 3 4 3 5 8 9 8 6 4 2 2 5 7 6 2 2 2 2 3 6 5 4 7 7 6 7 13 9 7 16 22 24 24 24 26 28 31 31 29 29 30 31 31 30 30 30 28 27 27 24 24 24 22 23 23 23 21 18
2 2 2 3 3 3 6 7 7 8 11 10 6 3 2 1 4 5 4 3 3 4 3 3 3 2 4 6 8 10 12 15 12 12 11 13 21 24 24 26 28 30 31 30 29 30 32 32 30 30 30 28 28 29 26 25 26 25 25 23 22 21 20
3 3 4 6 6 5 7 11 12 11 12 12 7 1 1 3 2 2 1 8 9 6 4 5 4 4 5 5 7 10 14 16 15 16 12 9 15 22 24 25 28 32 32 28 27 29 30 30 29 28 29 29 29 28 26 25 26 27 26 24 22 21 21
5 6 7 10 10 7 9 11 11 11 10 8 7 4 4 5 7 4 2 11 11 5 5 6 5 4 6 7 8 10 11 15 15 13 11 7 8 16 21 23 26 31 31 28 28 30 29 28 28 27 28 28 28 28 27 25 25 27 28 27 25 24 22
8 9 8 9 9 9 9 8 12 15 16 14 7 4 3 3 8 8 9 13 11 8 7 5 3 7 10 11 12 11 11 15 15 13 13 9 6 10 14 15 17 22 25 25 27 30 28 28 28 27 27 26 25 26 26 24 23 22 24 26 26 25 24
9 10 9 8 7 9 10 13 17 15 16 18 17 14 11 7 9 11 11 12 8 4 4 6 9 15 18 17 17 14 11 12 14 15 15 13 10 8 10 13 16 18 20 19 21 24 25 25 26 25 26 26 25 25 24 22 20 19 21 24 25 25 24
8 9 9 6 6 10 14 16 17 16 16 17 17 15 12 9 10 12 12 11 6 4 6 10 13 19 20 18 17 16 12 10 14 15 13 15 16 14 14 16 18 20 21 19 17 17 17 17 18 21 24 25 24 24 22 20 20 20 21 22 22 23 22
6 9 7 7 7 10 14 15 16 15 14 13 12 12 11 8 7 8 9 7 4 5 8 11 12 16 17 14 12 14 14 14 16 16 12 14 18 18 18 20 19 19 20 19 17 15 13 14 16 17 19 20 20 20 20 18 18 19 20 21 21 20 19
5 8 8 10 8 6 8 9 10 11 11 11 12 12 14 12 7 3 4 3 2 4 7 10 12 14 14 12 10 12 16 19 19 17 13 13 15 18 21 22 21 19 18 17 16 16 15 15 15 15 15 15 15 17 18 16 15 15 14 15 16 16 15
4 8 7 7 5 5 2 5 4 8 10 13 14 12 13 13 7 3 3 5 6 7 9 11 12 13 15 16 15 14 16 21 21 18 14 12 14 16 18 20 20 20 20 17 16 16 15 14 14 15 15 15 14 14 15 15 15 14 14 14 13 13 14
2 5 5 4 3 2 2 4 4 7 7 10 13 12 13 11 6 4 7 10 11 12 14 16 18 18 19 20 19 16 17 20 22 20 17 16 17 18 19 21 22 22 21 18 15 14 13 12 11 11 12 12 11 11 12 12 13 14 14 15 15 16 18
1 3 4 2 2 1 3 4 5 7 5 5 8 9 11 10 4 3 7 10 11 12 16 19 20 21 22 20 17 16 15 15 17 19 19 19 19 19 19 19 19 18 16 12 9 8 8 9 9 8 9 9 9 9 9 10 12 13 12 12 13 15 16
2 2 3 1 2 1 5 5 5 6 6 4 5 5 6 7 6 5 6 8 9 10 13 15 19 23 24 18 16 17 17 17 17 18 18 17 17 17 16 15 14 13 11 8 7 6 7 7 7 8 8 9 10 11 12 13 14 14 13 11 11 12 13
2 4 2 2 1 2 2 4 9 10 9 9 6 4 3 5 7 9 8 7 9 9 9 12 16 17 15 7 9 16 19 18 18 18 16 14 14 15 14 14 15 14 12 11 11 10 10 10 9 9 10 11 12 12 12 12 12 11 10 9 9 10 11
3 5 2 0 1 3 4 6 10 10 13 15 11 4 2 5 6 9 11 9 9 8 8 11 14 11 6 1 3 13 17 15 16 17 16 15 13 11 12 15 17 18 17 16 15 14 14 14 13 12 12 12 12 11 10 8 7 7 6 7 7 8 9
3 5 3 1 0 2 5 7 9 8 13 14 9 2 1 2 4 9 12 12 12 10 11 11 8 5 4 6 9 14 15 12 12 13 14 14 12 11 14 17 18 19 18 16 15 15 14 13 13 12 12 12 12 11 11 9 8 7 7 6 6 6 6
3 3 3 2 1 2 5 8 11 7 7 8 4 2 3 3 7 10 12 13 12 9 9 8 7 6 11 15 16 15 14 12 13 13 13 14 14 14 15 16 16 15 15 15 15 14 13 11 10 10 10 11 11 11 11 10 10 9 8 7 6 6 6
1 0 2 3 0 2 4 9 11 6 3 2 2 3 4 8 11 12 13 13 11 9 8 10 13 14 16 16 16 16 17 17 17 16 14 15 16 15 14 13 14 15 15 15 15 13 11 10 9 10 11 12 12 12 12 11 11 10 9 7 6 6 6
2 1 2 3 0 4 5 6 6 6 4 6 8 10 10 12 14 15 16 14 12 12 13 15 17 18 16 14 13 16 17 17 17 17 15 15 16 15 13 13 14 16 16 15 14 12 11 10 11 11 11 12 13 13 13 12 12 11 10 10 9 8 8
2 2 1 2 2 1 5 6 5 6 7 11 16 17 13 12 13 14 16 15 14 15 16 16 17 17 16 14 12 13 17 17 16 16 15 14 16 16 15 14 14 14 14 12 10 9 9 10 10 9 9 10 11 12 13 12 11 10 10 10 10 11 11
2 3 3 5 6 9 15 17 15 15 16 16 18 18 16 13 12 13 14 13 13 15 16 16 16 16 15 13 10 11 17 17 15 14 12 12 16 18 16 15 13 12 10 8 8 8 9 9 9 9 8 8 9 10 10 10 10 10 10 9 8 9 10
5 7 8 10 11 14 19 21 20 20 21 20 19 18 16 14 12 13 13 12 12 15 15 15 15 14 13 11 9 10 13 14 14 15 13 12 15 16 14 13 12 10 7 7 9 11 10 9 9 9 9 8 8 9 9 9 10 11 11 10 9 9 10
5 5 7 10 12 15 18 20 20 20 19 19 18 18 17 15 14 13 13 11 11 11 11 12 14 13 11 11 11 12 12 12 14 16 16 14 14 14 12 11 11 10 8 6 8 10 9 9 9 9 9 9 8 9 9 9 11 12 12 11 10 10 10
4 5 9 14 16 17 17 17 17 17 17 16 16 16 15 15 15 14 13 12 10 9 9 11 13 13 10 10 13 14 13 12 14 15 16 16 14 12 10 9 10 9 7 5 7 8 7 7 7 8 9 9 8 9 9 8 9 11 13 12 10 8 9
5 6 12 16 14 14 16 17 16 15 16 17 17 17 15 15 15 16 15 14 12 10 9 10 11 12 11 10 11 12 11 11 13 13 15 16 14 12 10 9 10 10 6 4 6 5 5 6 6 6 7 8 8 8 8 7 7 9 11 11 7 4 6
3 5 10 12 9 8 13 17 16 14 16 17 17 16 16 15 16 15 14 15 15 14 11 8 8 10 11 10 9 10 10 10 11 12 12 13 14 12 11 10 11 10 7 5 6 5 5 6 6 6 6 7 7 7 6 6 6 8 9 10 8 6 6
5 9 14 16 15 14 15 18 17 15 16 17 16 15 14 14 15 15 14 14 15 15 14 12 9 8 7 7 9 12 11 9 10 10 10 10 11 11 10 9 10 10 8 7 7 6 5 4 4 5 4 4 4 5 4 4 4 5 6 7 6 6 7
12 14 18 22 23 21 19 18 17 15 15 15 16 16 15 13 13 13 14 13 13 13 13 13 11 9 7 5 8 12 11 9 9 10 9 8 8 8 9 9 10 10 10 9 8 6 5 5 4 4 4 3 2 3 3 2 2 4 6 5 3 4 6
16 17 20 24 24 21 19 18 15 14 16 18 18 17 16 15 13 12 13 13 12 12 12 12 12 12 11 9 7 8 8 7 8 8 8 8 7 8 9 10 10 11 11 10 9 7 6 6 5 5 6 5 4 3 3 3 4 5 6 6 6 6 5

ECMWFFLT2_850_spd_111.txt.gz
Wind_Speed
2 6 9 10 10 6 1 0 2 3 2 5 5 1 1 3 2 1 2 2 2 1 2 3 3 5 8 14 17 19 22 23 22 24 28 30 31 33 37 42 44 44 44 44 43 41 38 37 35 33 31 29 27 26 26 26 24 22 23 24 25 24 23
7 2 8 8 8 6 4 2 5 2 2 3 4 2 2 2 1 1 1 3 2 1 1 3 5 6 7 9 12 16 20 23 23 24 28 31 32 33 36 39 42 44 44 44 43 42 39 37 35 33 30 28 27 25 25 25 25 23 23 24 25 24 24
9 4 6 3 7 5 2 4 5 3 2 1 2 2 2 1 1 1 1 3 3 4 3 4 8 10 10 9 10 12 16 20 23 25 28 31 32 32 33 35 37 41 43 44 44 43 41 37 35 33 30 28 28 25 24 25 24 22 21 23 25 25 24
6 4 4 2 5 7 3 1 2 2 2 3 2 2 3 3 2 1 1 2 3 4 5 7 10 12 11 10 10 10 15 21 23 25 27 29 32 32 31 32 33 37 41 44 45 44 42 39 36 33 31 30 29 26 24 25 24 23 22 22 25 25 25
3 1 1 2 3 4 3 2 0 1 0 1 2 1 1 4 3 2 1 1 4 4 4 8 10 10 10 11 10 10 16 21 21 23 25 26 28 30 31 32 32 33 37 42 45 44 42 40 37 35 33 32 30 28 26 26 26 25 24 23 24 26 25
2 3 3 3 1 3 3 2 0 2 2 2 2 1 2 2 3 3 3 2 5 4 1 5 8 6 6 10 11 10 16 21 22 23 26 27 27 28 29 31 30 30 33 38 42 44 43 42 39 37 35 34 33 31 28 27 27 27 25 24 24 26 26
4 7 7 5 3 2 3 3 2 1 1 3 4 3 3 1 2 1 2 1 4 4 3 2 6 6 8 13 15 15 19 24 24 24 26 27 27 27 27 29 30 31 33 34 36 38 40 42 41 39 37 35 35 34 30 28 28 27 24 23 23 25 25
5 6 6 3 5 5 3 3 4 3 2 1 3 5 3 3 2 1 1 1 3 3 5 2 3 8 12 13 14 18 21 24 25 26 26 26 25 26 27 29 31 32 33 33 34 34 35 37 37 37 38 38 37 35 32 30 29 27 23 21 22 24 24
6 7 5 5 7 6 3 3 5 4 5 4 1 1 3 2 2 3 4 3 3 3 5 5 6 7 9 7 8 15 21 25 28 28 27 26 24 26 29 31 31 32 32 33 36 36 36 36 35 32 33 37 39 38 35 31 29 27 24 21 21 23 24
2 3 3 3 5 4 3 5 7 7 7 5 2 1 3 1 3 2 4 3 1 2 4 6 6 5 5 6 5 10 16 23 27 28 28 27 26 27 30 33 34 34 35 34 35 37 40 41 40 35 29 29 33 36 36 35 33 31 28 23 21 22 24
4 4 4 5 3 2 4 7 9 9 9 6 2 4 3 2 2 2 3 4 4 2 3 5 4 4 4 4 5 6 10 15 20 22 25 26 26 26 28 30 32 35 38 39 37 38 43 44 44 42 36 30 30 31 34 37 36 33 30 27 24 23 24
4 6 5 4 3 4 4 7 10 11 11 8 5 4 2 3 3 2 4 4 5 2 2 4 3 4 4 3 5 6 8 10 13 16 19 21 22 23 24 26 28 31 36 39 39 39 42 45 45 44 41 38 36 35 35 35 34 31 27 26 26 25 25
3 5 3 1 4 3 2 6 9 10 11 9 6 2 4 3 4 3 2 5 6 2 3 4 4 5 5 5 5 6 7 8 9 12 15 17 17 18 19 21 24 27 31 34 36 37 37 39 42 41 40 40 40 40 39 35 33 31 27 25 25 25 24
2 3 1 3 5 3 3 6 8 8 8 7 5 5 4 4 5 3 5 10 8 4 4 4 5 5 7 8 8 8 8 8 8 9 11 12 12 13 14 17 19 23 26 28 30 32 33 34 37 38 38 39 39 40 39 37 34 32 28 26 25 24 24
1 2 2 0 3 4 4 6 9 10 8 7 6 6 6 6 7 7 8 9 7 5 6 7 7 8 10 10 10 9 8 8 8 8 8 8 9 10 11 13 15 18 21 23 26 28 28 29 32 33 34 36 37 36 36 36 35 31 28 27 26 25 24
2 3 2 3 1 3 5 6 9 10 7 5 5 6 5 5 4 4 5 5 3 4 7 8 9 10 11 10 9 8 7 6 7 7 7 7 8 9 10 11 12 13 16 19 23 24 24 25 27 28 29 30 31 32 33 33 32 31 29 28 27 26 25
3 4 2 2 1 3 4 3 4 4 2 0 2 5 7 6 3 3 3 3 2 4 7 7 7 8 10 10 10 10 9 7 6 7 8 8 8 8 9 10 11 13 15 18 21 22 22 22 24 25 24 24 25 26 28 30 30 30 29 28 27 26 24
3 6 4 4 2 1 4 3 1 2 2 3 2 4 6 6 3 3 3 5 6 8 9 7 8 9 9 10 12 12 11 9 9 10 10 10 11 12 13 13 14 16 15 16 19 21 21 22 22 24 23 23 24 24 24 26 27 25 24 24 25 24 22
2 3 5 4 2 5 5 3 1 3 5 7 7 6 6 6 4 4 4 5 6 8 11 11 12 13 12 13 14 14 13 12 13 14 13 11 11 13 15 15 16 16 14 13 13 14 16 18 19 20 19 19 22 23 21 22 23 21 20 22 24 23 22
0 2 3 1 5 5 4 3 3 1 3 5 6 4 5 5 4 2 5 1 3 4 14 16 14 14 16 18 17 16 16 14 13 14 13 11 11 13 15 15 15 15 14 13 11 10 11 12 13 14 14 14 18 21 22 23 24 22 22 22 24 24 23
1 2 1 2 3 5 4 3 2 2 2 2 4 2 2 4 2 2 3 4 3 5 15 17 12 11 14 16 14 13 16 14 12 12 13 12 11 13 15 15 14 15 14 13 12 11 13 14 13 12 13 13 15 19 22 23 23 23 22 22 22 22 21
2 4 1 1 2 3 5 5 5 4 1 2 5 4 2 4 3 3 4 6 6 7 10 9 6 6 8 6 6 8 12 11 11 13 14 14 13 13 14 13 12 13 12 12 12 11 12 13 12 12 12 12 13 17 19 19 19 19 19 18 17 18 18
2 4 3 2 3 4 5 6 7 4 2 1 5 5 4 5 7 7 6 6 8 9 7 5 5 5 4 1 1 5 8 9 10 11 12 13 12 12 11 11 10 10 9 9 9 8 9 10 10 10 10 10 11 13 15 15 15 14 14 13 13 14 15
2 3 2 2 3 3 4 6 6 2 2 1 5 3 4 6 10 10 9 8 8 8 8 8 6 4 3 5 6 7 9 9 8 8 10 10 10 10 11 12 13 12 11 10 9 8 8 9 10 9 9 9 9 10 11 11 11 11 11 10 10 11 11
3 4 2 2 4 4 5 6 3 1 3 3 3 2 5 8 13 13 12 10 8 6 5 5 5 5 8 11 11 10 11 10 8 7 8 9 11 12 13 14 15 15 14 12 12 12 12 12 11 10 9 9 9 9 9 9 9 9 8 8 8 8 8
3 3 2 1 4 4 3 3 1 4 4 0 3 4 4 8 13 14 14 12 9 5 3 4 10 15 17 15 12 10 11 11 10 10 11 11 13 14 14 15 15 14 14 13 13 13 13 12 11 10 8 8 9 9 9 9 8 7 6 5 4 3 3
3 2 2 1 2 3 1 2 2 3 3 4 6 8 6 6 11 13 13 12 8 6 8 13 19 22 19 16 12 11 12 13 13 12 12 12 13 13 13 14 13 14 15 15 15 15 14 13 11 9 7 8 10 10 10 11 10 9 8 7 6 5 4
3 2 2 3 4 6 4 3 3 2 3 7 12 13 9 8 9 10 11 10 9 13 17 21 22 21 19 17 13 12 13 13 12 12 12 12 13 13 14 14 13 13 14 15 16 16 14 13 12 9 8 9 10 11 11 12 11 9 9 8 7 7 6
3 4 4 4 4 4 5 8 7 4 8 12 13 12 11 11 10 10 11 13 16 19 21 21 21 20 20 17 14 12 13 13 12 12 12 13 13 13 14 15 14 13 14 14 14 15 13 13 12 11 10 10 10 12 13 13 11 10 10 9 8 8 8
1 2 1 1 4 8 6 2 9 14 15 14 12 10 11 11 9 10 16 19 20 20 19 19 20 19 18 17 14 13 13 13 13 13 13 13 13 13 13 14 13 12 12 12 12 13 13 13 12 12 11 10 10 11 12 11 10 10 9 8 8 8 8
2 1 3 4 7 11 12 9 6 17 19 14 13 12 10 9 10 13 18 21 20 18 17 16 17 17 17 16 15 13 13 14 13 12 12 13 13 13 13 13 12 11 11 11 11 11 11 11 10 10 10 10 10 11 12 11 10 9 8 7 7 7 7
2 2 1 4 11 13 10 10 4 12 19 16 13 14 13 12 13 15 17 18 16 15 14 13 13 15 15 15 15 15 14 14 12 11 11 11 12 13 13 13 12 10 9 9 9 8 9 9 9 9 9 9 9 10 10 10 9 8 7 6 6 6 6
2 1 4 7 11 11 8 2 2 10 18 17 14 16 16 16 15 15 15 14 11 11 11 9 10 14 16 14 15 16 16 14 13 11 10 10 10 11 12 13 12 11 9 8 8 8 9 9 9 8 8 8 8 8 8 7 7 6 5 5 4 3 3
2 3 7 11 7 5 9 11 8 10 15 15 14 14 14 15 15 15 15 14 11 10 9 8 9 13 16 15 15 16 16 15 13 12 10 9 8 8 9 10 10 10 9 8 8 9 9 9 9 8 7 8 7 7 5 4 4 4 4 4 3 2 2
6 11 16 17 12 10 14 17 16 15 15 16 16 14 14 15 15 15 15 16 15 13 11 10 11 14 16 16 14 14 14 14 14 13 11 9 7 7 6 6 7 8 9 8 7 8 9 9 9 8 7 7 6 5 3 2 2 2 2 3 2 3 3
8 18 23 19 16 18 20 20 21 19 17 17 19 18 17 16 15 14 15 15 15 15 15 14 14 14 15 15 13 12 13 13 13 13 10 7 6 6 5 4 4 6 7 7 6 6 6 6 7 6 6 5 4 3 2 1 1 2 3 4 5 5 6
15 23 23 19 20 23 23 21 21 18 16 16 18 18 17 16 15 14 14 14 15 15 16 16 15 14 14 14 13 13 14 13 12 11 9 7 6 5 4 2 4 5 6 6 5 4 4 3 4 4 5 4 3 2 1 1 1 3 4 6 7 8 8

ECMWFFLT2_850_spd_114.txt.gz
Wind_Speed
3 3 5 6 6 4 0 1 1 3 3 6 4 1 1 3 1 2 2 2 3 2 3 2 5 6 10 13 16 19 22 22 23 25 28 30 33 34 36 38 39 39 38 38 37 36 34 33 32 30 28 25 24 25 24 23 23 22 23 23 23 22 21
7 3 5 7 5 4 4 1 3 2 1 3 4 1 2 3 0 2 2 3 3 1 2 1 4 6 8 10 11 15 20 21 23 26 30 32 34 36 37 38 39 40 39 39 39 37 35 34 32 30 28 26 24 24 25 24 24 24 24 24 23 22 22
8 5 7 5 1 1 5 5 1 3 1 2 1 1 0 1 1 3 2 3 3 3 3 2 5 7 9 10 10 12 16 20 23 25 30 32 34 35 36 37 38 40 40 40 40 39 37 35 34 31 29 27 26 24 24 24 24 24 24 25 24 23 22
5 5 5 1 3 4 2 3 2 3 4 4 2 2 2 2 1 2 2 2 3 4 3 5 8 9 9 11 10 10 15 22 24 25 29 32 33 34 35 36 37 39 41 42 41 40 39 37 35 33 32 30 28 25 24 24 24 24 24 24 23 22 22
3 2 1 1 1 2 1 2 2 2 2 3 3 2 1 3 2 2 1 2 4 4 2 4 7 8 9 10 10 11 17 23 27 29 31 32 33 34 34 35 36 38 40 41 42 41 40 38 37 35 34 32 30 27 25 23 23 24 24 24 23 21 21
2 3 3 1 1 2 3 2 1 2 3 3 3 3 2 2 3 3 3 2 5 3 2 4 5 5 7 10 11 11 16 22 27 30 32 33 33 34 34 34 35 36 38 40 41 42 41 40 39 38 37 34 32 29 26 23 23 23 23 23 21 20 20
4 8 7 4 3 1 3 2 3 1 1 1 3 3 3 0 1 1 2 1 5 3 4 4 1 2 5 10 14 14 15 21 25 28 29 31 33 34 34 34 34 35 37 39 41 42 42 42 41 39 38 37 35 31 28 25 24 23 22 21 21 19 19
5 7 7 4 3 4 4 2 3 2 2 2 3 4 2 1 1 1 1 2 4 3 5 5 3 4 4 5 11 14 13 15 21 25 26 27 30 32 34 35 35 35 36 39 41 43 43 42 41 41 40 38 37 34 31 29 26 23 22 21 21 21 20
5 6 6 5 4 4 2 3 4 4 4 5 2 2 1 0 3 3 3 3 4 3 5 6 5 4 5 5 1 7 9 9 13 18 22 25 27 30 32 34 35 35 36 38 40 42 42 42 42 41 41 40 39 37 35 33 30 27 25 23 22 21 20
2 1 2 2 3 3 2 3 6 6 8 8 2 2 2 1 3 3 4 3 3 3 4 6 6 4 4 7 8 5 9 12 13 13 17 23 26 28 30 32 34 35 36 37 39 40 41 41 41 41 42 41 40 39 37 35 33 32 30 27 25 23 22
6 6 5 5 2 1 2 5 7 7 8 8 3 2 2 1 2 1 3 3 1 1 4 5 5 5 4 5 8 7 8 12 11 10 11 16 20 23 25 27 30 32 33 35 37 38 39 40 40 41 41 42 42 41 39 37 34 33 32 31 29 25 23
4 5 5 4 3 4 0 3 6 7 7 9 8 4 2 2 1 3 5 2 2 2 3 4 4 5 4 5 6 7 7 10 12 9 6 8 12 16 19 21 25 27 29 32 34 36 38 39 40 40 41 42 43 42 41 38 35 33 31 31 31 28 24
3 1 2 4 2 5 2 2 4 6 6 9 9 5 4 1 2 3 4 2 2 1 3 4 4 5 4 5 6 5 8 9 12 11 8 6 7 11 15 19 22 24 26 29 31 33 36 37 38 39 40 41 42 43 42 40 38 34 31 31 31 29 26
3 2 2 3 1 4 3 2 3 4 3 6 7 6 6 3 3 2 1 4 4 3 3 3 3 4 3 4 5 5 6 8 9 9 10 10 7 9 13 17 20 22 23 25 28 31 33 34 35 36 37 38 40 41 42 41 39 36 33 33 31 29 28
3 3 2 2 1 3 2 2 3 4 3 4 5 5 6 4 2 4 4 4 4 3 3 4 5 5 5 5 6 7 7 7 11 11 9 10 9 9 10 12 16 19 21 23 26 29 31 32 32 33 34 35 35 36 38 39 39 37 35 34 33 32 30
3 3 4 4 1 4 3 3 4 4 3 2 2 3 3 4 3 1 1 1 1 1 3 5 7 7 8 8 7 8 8 7 10 12 10 9 8 8 7 8 11 14 17 20 22 24 27 28 29 30 31 32 33 34 35 35 35 35 33 33 34 33 30
3 4 4 3 2 4 3 4 2 1 0 1 2 1 4 4 4 2 1 1 2 3 6 6 6 7 8 7 7 6 5 4 6 9 8 8 7 5 5 5 7 10 12 15 17 18 20 22 24 26 28 29 31 34 36 36 36 34 32 33 34 31 26
3 5 4 4 3 1 4 5 2 3 3 2 1 1 3 4 3 1 0 2 2 4 8 6 5 6 5 4 4 3 3 3 5 6 4 4 4 5 6 7 7 7 8 9 11 14 17 19 21 23 26 28 30 31 33 35 36 35 34 34 31 27 25
1 3 5 3 2 4 5 5 4 2 5 5 3 0 1 3 3 2 2 2 4 2 6 10 8 5 5 7 6 4 4 7 8 8 6 4 5 7 8 7 6 5 4 4 6 10 14 17 19 21 23 25 27 30 31 32 34 34 34 33 29 26 25
0 1 3 1 5 6 4 5 4 1 3 4 3 2 4 3 4 4 3 1 3 2 3 9 15 14 8 7 10 9 7 9 11 11 9 6 6 7 6 5 5 5 4 3 3 7 10 13 16 19 20 20 22 25 27 29 31 31 32 32 28 26 24
1 2 1 2 3 4 3 3 3 3 2 3 4 1 5 4 6 6 5 4 5 4 3 4 11 16 9 5 9 12 10 11 11 11 10 8 7 8 6 5 6 7 6 4 4 6 10 12 13 16 19 20 19 18 19 22 25 27 29 29 27 23 21
2 4 1 2 3 2 4 5 3 2 4 5 7 3 4 5 8 11 9 7 6 5 5 2 3 10 9 2 6 10 12 13 13 13 12 12 11 11 9 8 9 10 9 9 9 8 9 10 11 13 16 18 18 17 16 17 19 21 23 24 23 21 19
2 4 2 2 2 3 5 6 4 3 5 6 7 4 5 5 11 15 12 9 9 9 6 3 4 2 5 1 3 6 11 13 14 15 14 13 12 12 11 10 11 12 12 12 11 11 11 10 10 9 10 13 16 18 18 17 18 19 20 22 22 21 20
3 4 2 2 3 3 4 6 4 5 8 7 7 2 5 6 12 16 14 11 12 11 6 1 3 2 3 5 3 6 10 13 15 15 15 14 14 14 14 13 13 13 12 10 10 11 12 12 11 8 8 10 13 15 16 16 16 16 16 16 16 17 16
3 4 2 2 4 4 5 5 6 8 8 5 4 3 5 6 12 15 13 12 12 10 5 0 2 2 5 11 10 8 11 14 16 16 15 15 15 16 16 15 14 14 14 12 11 13 13 12 11 8 6 7 11 14 15 14 14 13 11 10 10 11 9
2 3 2 1 4 4 3 5 6 7 6 2 3 5 4 8 14 15 13 13 12 9 4 3 6 9 13 14 12 10 13 16 17 16 15 15 15 15 16 15 15 16 17 16 16 16 15 13 12 9 6 7 11 13 13 14 14 11 9 7 8 8 7
3 2 2 1 2 4 2 6 5 4 4 3 3 4 4 7 12 14 14 13 10 8 7 11 15 16 15 14 13 14 17 18 18 17 16 16 16 15 15 15 15 16 18 19 19 18 17 15 13 11 10 11 12 12 13 14 14 11 10 8 8 8 7
3 3 2 3 3 3 1 3 3 3 3 3 4 7 7 7 10 13 13 11 7 8 14 18 18 16 16 16 16 18 19 19 19 19 18 18 18 17 17 16 15 15 17 19 20 19 18 17 15 13 13 14 15 14 15 14 12 10 10 9 7 8 9
3 4 4 3 1 2 2 3 5 5 3 1 5 7 8 9 10 11 12 10 10 14 19 20 18 16 18 19 18 18 19 19 19 20 19 19 19 19 18 18 16 16 17 18 19 20 19 18 17 16 15 15 16 17 16 14 11 10 10 8 8 9 10
1 1 1 0 3 5 3 3 3 2 3 4 2 3 6 11 10 10 13 16 18 20 22 22 19 18 18 19 18 18 19 19 19 19 18 18 18 19 19 18 17 16 17 17 18 19 19 17 16 15 14 14 17 17 16 14 12 11 10 9 9 10 10
1 0 1 2 3 4 4 6 7 6 7 7 2 4 2 10 11 14 20 23 22 21 21 23 22 20 19 20 20 19 19 19 18 17 17 17 17 18 18 18 17 16 16 17 17 18 18 17 15 14 13 14 15 15 14 13 12 11 11 10 10 10 10
2 2 3 1 5 6 7 8 8 8 7 8 2 7 4 10 14 18 24 26 23 20 20 22 23 22 21 21 21 20 20 19 18 17 17 17 18 19 19 18 18 17 17 17 17 18 18 17 16 15 14 15 15 14 14 13 13 12 11 11 11 11 10
1 2 3 3 5 7 9 10 10 10 8 7 1 6 4 12 15 16 22 24 21 20 20 20 21 21 21 20 20 20 20 19 19 18 18 19 20 21 20 19 18 18 18 18 17 18 18 17 16 15 15 15 15 14 14 14 13 13 12 12 11 10 10
1 4 8 9 4 3 6 10 11 10 9 8 3 3 1 9 9 7 12 17 19 18 17 18 19 20 20 19 18 18 18 18 18 18 18 19 20 20 19 18 17 17 18 18 18 18 19 18 16 15 14 14 13 12 12 12 12 12 12 11 10 10 10
4 8 15 15 9 8 11 13 14 12 10 11 8 5 5 8 7 4 4 8 15 17 17 17 18 19 19 18 17 17 17 16 16 16 16 17 18 18 17 16 15 15 16 16 16 17 17 17 16 15 13 13 12 11 11 10 10 10 9 9 9 10 10
2 11 19 17 13 15 18 17 16 13 10 10 11 11 10 9 9 7 5 4 9 14 16 17 17 17 17 16 15 15 15 14 13 13 13 13 14 15 15 15 15 15 14 14 14 14 14 14 14 13 12 12 11 10 10 9 9 9 9 9 9 9 10
4 15 19 16 15 19 21 19 16 15 15 16 16 16 16 14 12 12 11 9 10 14 16 16 16 15 15 15 13 13 14 13 11 11 10 11 11 12 13 13 14 14 14 13 13 12 12 11 11 11 10 9 9 9 8 8 8 9 9 9 10 10 11

ECMWFFLT2_850_spd_117.txt.gz
Wind_Speed
2 5 5 6 4 3 2 2 3 1 0 1 0 1 1 1 3 2 3 3 2 1 3 4 5 6 11 14 17 22 23 18 19 22 26 31 34 35 36 37 38 38 37 36 34 31 31 30 28 26 24 23 22 22 23 22 22 21 21 20 18 17 17
4 2 5 7 2 1 3 3 2 2 2 0 1 1 1 2 4 2 2 5 3 1 2 3 6 9 11 13 15 19 22 21 19 20 25 32 36 36 37 37 37 37 37 36 35 33 31 30 28 25 23 22 21 21 22 22 22 22 21 20 19 18 17
6 2 5 6 4 3 1 3 2 0 2 2 1 1 2 2 4 3 2 3 3 4 3 2 6 11 11 12 14 16 20 24 22 19 23 30 34 35 36 37 37 37 38 37 35 33 32 30 29 26 23 22 22 22 22 22 22 22 21 20 19 18 18
1 2 1 2 3 3 3 4 2 3 1 2 1 0 2 3 4 4 2 2 2 3 1 1 5 8 10 12 13 14 20 25 23 20 20 24 31 35 36 37 37 38 37 37 36 34 33 31 29 28 26 24 23 22 22 22 22 22 21 21 20 19 19
1 2 3 2 1 1 2 3 1 1 1 2 2 1 3 4 4 4 4 5 2 2 2 4 6 6 8 12 12 13 18 22 23 24 22 23 29 34 36 37 38 37 37 36 36 35 34 32 30 30 28 26 25 24 23 22 22 22 22 22 21 20 20
3 4 3 2 1 1 1 1 1 1 2 2 2 2 3 4 5 4 5 6 3 3 3 5 5 5 6 10 12 12 14 19 24 26 26 26 29 32 35 37 38 37 37 36 36 35 35 34 33 32 31 29 28 26 24 23 22 22 23 23 22 21 21
2 2 3 1 1 4 6 5 2 0 2 3 3 2 2 4 4 2 3 5 2 3 5 5 4 3 0 5 8 9 10 13 19 22 24 28 30 31 33 35 37 38 37 36 36 35 35 35 35 34 33 32 30 28 26 25 23 22 22 22 22 21 22
1 1 3 5 5 4 5 5 3 1 1 3 3 1 1 2 3 2 2 3 0 4 6 6 5 7 7 4 2 2 3 5 9 15 20 24 28 30 33 34 35 36 36 36 36 36 36 36 35 35 35 33 32 30 29 27 25 22 21 21 21 22 22
2 4 4 5 5 3 2 3 3 2 2 3 4 1 1 3 2 1 4 3 1 4 6 7 7 8 9 7 5 4 2 2 4 9 15 21 25 28 31 33 35 35 35 36 36 36 36 36 35 35 35 34 33 32 31 29 26 24 22 21 21 22 23
4 5 4 3 4 3 2 2 3 3 4 2 2 1 3 4 2 2 3 2 3 4 7 9 8 7 7 6 7 8 6 4 5 7 12 17 21 25 28 30 32 34 35 35 36 36 36 35 35 35 35 35 35 34 32 30 28 26 23 22 22 23 23
4 3 1 1 2 3 3 3 3 4 4 3 1 1 2 1 3 1 1 3 4 3 7 9 8 7 5 4 5 7 6 5 6 6 8 13 16 20 23 25 27 29 32 33 35 36 36 35 35 35 35 35 35 35 34 32 30 28 25 24 23 23 24
3 2 3 4 2 1 3 3 3 5 3 3 4 2 1 2 3 2 3 5 6 3 7 8 7 7 4 4 5 5 5 6 7 6 6 8 11 14 17 20 23 25 27 30 32 34 35 35 35 36 36 36 36 35 34 33 33 31 28 26 25 25 24
2 2 4 4 3 2 1 1 3 4 3 3 5 3 1 1 3 3 5 6 5 3 6 7 6 5 5 5 5 3 4 6 8 7 6 7 8 10 12 15 18 21 23 26 28 30 32 34 35 36 37 37 37 37 36 35 34 33 31 30 28 27 26
2 2 3 2 1 2 1 1 2 2 4 5 4 3 2 1 2 3 4 5 3 3 5 6 6 5 4 4 4 4 4 3 6 7 7 7 7 8 9 11 13 16 18 20 23 26 28 30 32 34 36 37 38 38 38 37 36 34 33 32 31 30 28
2 1 2 1 0 2 3 2 2 1 4 5 4 2 1 1 2 2 3 3 2 3 5 7 8 7 6 6 6 6 5 3 2 4 7 7 6 6 7 9 11 12 14 17 19 21 24 26 29 32 34 35 36 36 36 36 35 34 33 32 33 33 31
2 0 2 3 1 2 5 5 3 2 2 2 3 3 2 2 1 1 3 3 1 2 3 7 8 9 9 10 10 9 7 5 3 1 2 4 5 4 5 6 8 9 12 14 16 18 21 23 25 28 30 31 33 33 33 33 32 33 33 32 32 33 32
2 1 3 3 2 2 5 4 2 1 3 2 3 4 3 4 3 2 3 1 2 3 1 5 6 6 7 7 7 6 5 3 2 2 1 3 4 4 4 4 4 6 7 9 12 14 16 18 20 22 24 25 27 28 29 29 30 31 31 31 31 31 31
1 2 2 1 3 4 1 1 1 2 3 4 4 3 4 6 5 3 2 1 2 4 2 3 4 4 4 4 6 6 5 4 2 1 1 3 4 5 4 4 3 2 3 4 7 8 9 11 14 16 18 20 22 24 26 28 29 29 29 29 30 30 30
1 1 0 4 4 2 1 1 1 2 2 3 5 5 6 7 6 6 5 3 1 2 2 3 4 5 6 7 9 10 10 9 6 3 3 4 5 6 5 6 6 5 3 1 3 5 6 7 9 11 13 16 18 20 22 24 26 28 28 29 30 30 31
1 1 2 3 2 1 2 4 3 2 2 2 4 6 8 9 9 8 6 4 4 3 1 3 5 5 6 9 12 12 12 9 7 6 5 6 7 7 6 5 6 7 6 4 3 3 4 6 8 9 9 11 13 15 18 21 23 26 28 29 30 31 32
1 1 2 2 3 1 3 4 3 5 5 3 2 4 4 8 10 8 6 5 5 5 3 5 5 2 3 7 11 12 15 14 9 7 6 6 8 8 6 5 6 6 5 3 3 4 5 6 8 9 9 10 10 12 14 18 21 25 28 28 29 30 30
0 1 2 3 4 2 1 2 3 5 4 3 2 3 3 6 10 9 7 6 6 7 6 5 3 1 1 3 5 7 16 19 13 8 7 8 10 9 6 5 5 5 4 3 3 5 5 4 3 5 8 7 7 8 10 13 18 23 26 27 28 29 28
2 3 3 2 3 2 1 3 4 4 4 3 3 5 4 3 10 11 10 9 9 9 7 5 2 2 1 1 2 3 15 22 17 10 9 10 12 12 9 7 7 6 5 4 5 7 7 6 5 2 3 5 6 7 8 11 13 16 17 18 20 21 21
3 4 3 2 3 2 0 2 3 5 5 3 3 5 2 2 8 11 11 11 10 9 6 3 2 1 2 3 1 2 13 23 21 16 12 11 12 12 11 11 10 9 9 8 9 10 11 10 8 6 3 4 5 6 9 10 9 9 10 11 13 14 14
2 4 4 3 2 1 1 2 4 6 5 3 3 3 2 2 8 10 11 11 10 9 5 1 1 4 7 9 7 7 15 23 24 21 17 15 14 13 12 11 10 9 12 14 16 17 17 16 14 10 8 10 11 11 12 12 12 13 13 12 11 12 13
1 2 3 2 2 1 1 3 6 6 4 3 2 3 3 4 9 10 10 11 11 9 4 2 6 11 13 14 12 12 17 22 23 22 20 18 17 16 15 14 12 13 16 19 21 21 20 19 17 13 12 16 18 18 17 18 18 17 15 15 15 15 15
1 1 2 2 2 1 4 7 6 4 3 2 4 4 1 5 10 11 11 12 12 10 6 7 12 16 16 16 16 17 18 19 20 21 21 21 20 19 18 17 16 17 20 22 22 21 19 18 17 15 15 18 20 19 20 20 19 17 16 17 19 19 19
2 3 3 1 1 1 3 5 3 1 3 5 5 3 1 5 9 11 11 13 15 11 9 12 16 17 18 19 20 21 20 20 21 21 21 22 22 21 20 20 20 20 23 24 24 22 20 18 18 16 16 19 21 21 21 20 18 18 18 19 20 21 21
2 2 1 1 2 1 4 6 5 4 6 7 5 3 2 4 9 11 10 14 16 13 13 16 17 18 20 20 22 23 23 22 22 22 22 22 22 22 22 22 23 24 25 26 25 24 22 20 20 19 19 21 23 24 22 20 19 20 19 20 21 22 22
1 2 1 1 2 2 3 5 5 4 4 5 3 3 2 3 8 11 10 10 14 15 17 20 19 19 21 22 23 25 26 25 23 23 23 23 23 23 23 22 23 23 24 25 25 25 23 21 21 21 22 24 24 23 22 21 21 21 21 22 23 23 22
3 2 2 1 2 2 2 2 2 3 3 3 3 4 4 4 5 9 9 8 11 16 19 21 21 20 22 25 26 26 26 26 24 24 25 24 23 23 22 22 22 22 23 24 24 24 23 22 22 22 23 24 23 21 20 20 20 20 21 22 22 21 21
2 1 1 1 1 1 3 4 5 5 4 4 3 3 5 6 6 7 9 8 10 14 16 19 21 22 24 27 28 27 26 26 26 26 26 26 25 24 23 22 22 22 24 24 24 24 24 23 22 23 24 23 22 21 20 18 18 19 20 20 20 20 19
1 1 2 3 1 2 4 6 7 7 6 6 6 4 5 8 8 7 7 9 12 15 15 17 21 23 24 26 28 28 28 28 28 28 28 28 27 27 26 25 24 25 25 25 25 25 24 22 22 22 22 21 21 21 20 18 17 18 18 18 19 19 18
2 2 8 9 3 2 5 6 8 9 8 9 11 10 8 8 9 8 7 10 16 21 19 17 20 24 25 25 27 28 29 30 30 29 29 29 29 29 28 27 27 27 26 26 26 25 23 21 21 21 21 20 20 19 18 17 16 16 16 16 17 18 17
1 5 15 15 6 6 9 11 12 13 12 12 13 14 14 13 12 12 10 8 13 21 23 20 21 24 24 24 26 27 28 28 29 29 29 29 29 29 28 28 28 27 26 26 26 25 23 22 21 20 20 20 19 18 17 16 15 14 14 14 15 16 16
1 10 19 17 10 12 16 16 16 14 13 13 15 15 15 16 16 15 13 9 9 16 21 21 21 22 23 24 25 26 26 26 27 28 28 28 28 28 27 26 25 25 24 24 23 23 22 20 19 18 18 17 17 16 15 14 14 13 13 13 13 14 14
5 15 19 15 15 20 22 19 17 15 12 13 16 15 13 15 16 15 14 14 12 15 20 21 20 20 21 22 24 25 24 24 25 25 26 26 26 25 25 24 23 22 22 21 20 19 18 17 17 16 16 15 15 14 14 13 12 12 12 13 13 13 13

ECMWFFLT2_850_spd_123.txt.gz
Wind_Speed
4 5 6 4 7 5 2 6 7 4 7 10 9 8 7 5 5 5 4 7 3 2 2 2 2 3 9 12 14 18 18 15 16 18 22 24 24 24 26 26 26 26 25 24 23 23 23 21 21 21 20 21 21 20 21 21 22 21 21 22 21 20 19
3 2 9 7 5 4 2 3 5 5 7 8 7 5 5 6 7 5 5 9 4 4 2 4 4 3 4 8 12 16 17 15 14 16 25 29 26 25 26 26 27 27 25 25 24 23 23 22 21 21 20 20 20 19 20 21 22 22 22 22 21 20 19
2 2 7 7 3 5 6 2 2 4 4 4 5 6 7 8 7 4 6 11 7 2 2 1 2 2 4 5 8 13 16 17 16 15 20 26 26 25 26 26 26 27 26 25 25 23 22 22 21 21 20 19 20 20 19 20 21 21 21 21 21 20 20
1 3 5 5 2 5 8 4 4 6 4 2 3 3 5 7 6 4 6 8 4 3 2 2 2 1 2 5 8 10 14 18 19 18 18 21 23 23 24 26 26 26 27 26 25 24 23 22 21 20 21 20 20 20 19 19 20 21 21 20 20 21 20
3 3 2 3 2 3 7 6 5 6 5 5 4 2 4 7 6 3 5 6 1 3 2 2 4 5 2 2 6 9 11 17 19 19 17 18 23 24 22 25 27 26 27 26 25 24 23 22 22 21 21 21 20 19 20 20 20 20 21 21 20 20 19
4 2 1 3 3 3 5 5 5 6 4 2 2 4 7 8 6 5 5 6 0 3 2 2 4 5 7 5 3 8 12 13 17 18 18 16 21 26 23 23 26 26 26 27 25 24 24 23 22 22 21 21 20 20 20 20 20 20 20 20 20 20 19
8 1 2 3 3 5 8 6 4 5 3 2 2 3 7 7 7 6 6 7 2 3 0 2 4 1 7 6 1 5 13 11 14 16 21 18 15 22 24 21 24 26 25 25 24 24 25 23 23 23 21 21 21 20 20 20 20 20 20 20 20 20 19
9 3 1 3 2 3 8 6 3 5 5 5 3 4 8 9 7 6 6 6 1 3 2 3 2 1 1 6 5 3 9 5 11 12 19 20 15 20 25 21 22 25 25 25 24 23 24 24 23 23 22 21 21 20 20 19 19 20 20 19 20 20 20
7 5 3 5 4 5 6 1 4 5 8 12 9 7 8 9 7 6 6 4 0 2 4 5 5 4 3 5 6 6 8 3 6 8 13 19 18 21 23 20 21 24 25 26 26 24 23 23 23 23 23 22 21 21 20 19 19 19 19 19 19 20 21
6 5 4 3 2 5 5 3 2 7 14 13 9 6 6 5 5 6 5 2 2 2 3 8 6 6 2 5 6 5 5 3 2 5 9 14 18 20 19 18 20 22 24 24 25 26 25 23 23 23 23 22 21 22 22 21 20 20 20 20 19 20 21
7 8 7 5 3 7 8 3 4 11 12 6 6 5 5 4 5 4 2 2 4 3 4 7 6 6 3 5 5 4 2 1 1 4 6 10 15 18 18 18 20 21 23 24 24 25 24 23 23 23 23 23 23 24 24 23 22 22 22 21 21 22 21
10 11 8 6 6 7 10 9 8 10 8 5 5 4 7 10 8 3 1 3 6 1 4 3 6 4 5 5 4 2 2 3 3 5 6 8 12 16 18 20 21 21 22 22 23 23 22 22 23 23 23 24 23 23 23 22 22 22 22 22 23 23 21
9 11 7 6 5 4 6 10 10 9 8 8 8 5 5 10 10 5 3 5 7 4 2 3 6 1 4 0 1 1 2 3 4 4 6 6 7 12 17 19 21 21 20 20 22 22 21 20 21 20 20 21 22 21 21 20 21 22 21 22 22 22 21
9 11 8 6 6 5 5 9 11 11 10 10 10 8 8 10 9 8 5 4 8 7 2 6 4 5 5 4 2 3 2 3 4 3 4 3 3 8 14 17 18 19 19 18 20 20 20 19 19 19 19 19 19 20 20 20 21 21 21 21 21 21 21
9 11 9 7 8 7 7 10 12 12 12 12 12 11 11 9 7 8 8 6 7 6 3 4 5 7 5 4 2 3 3 3 3 3 4 3 1 4 11 16 17 19 20 18 18 19 19 19 19 19 19 19 19 19 20 20 20 20 21 21 20 20 20
7 10 10 7 7 9 10 12 12 12 13 11 10 10 6 4 6 8 9 8 5 2 6 7 4 5 4 5 3 2 2 4 3 4 6 7 4 1 6 10 12 15 17 17 16 17 17 18 18 18 18 18 18 18 18 18 19 19 19 19 19 20 20
7 10 6 4 6 9 9 7 4 6 10 9 10 9 4 6 7 7 6 6 5 3 5 8 4 3 2 2 4 3 2 4 5 5 7 12 11 5 3 4 7 9 10 11 13 14 14 14 14 15 16 15 15 16 16 17 17 17 16 16 17 18 19
8 8 2 3 8 8 4 1 3 4 7 6 9 10 6 6 6 2 1 5 5 4 5 5 1 2 3 4 4 4 3 2 4 4 5 11 14 11 6 6 7 8 6 3 5 8 10 10 10 11 12 12 12 13 14 14 14 14 13 14 15 15 18
8 7 2 4 8 3 2 2 1 2 5 7 9 10 11 11 8 6 7 6 4 7 7 2 2 2 3 4 3 3 2 2 2 2 2 4 9 13 12 10 10 10 7 5 6 8 9 10 10 11 11 11 10 10 12 12 13 13 13 14 14 14 16
6 6 6 7 4 2 2 5 3 3 5 7 9 10 9 8 6 6 6 3 4 10 8 2 2 4 5 5 5 4 4 3 1 1 1 1 2 11 15 12 11 11 11 10 11 12 11 10 10 12 12 11 10 9 10 12 12 12 13 14 13 13 15
6 7 7 7 6 6 7 6 3 2 5 4 5 7 8 4 2 3 4 3 8 12 6 3 4 5 5 3 5 6 5 4 4 2 2 1 2 8 13 12 11 13 13 12 12 12 10 9 9 11 12 12 11 11 12 13 13 13 15 16 16 15 16
5 5 6 7 8 6 2 1 1 0 3 6 6 6 6 4 2 2 5 6 10 11 5 4 3 4 3 1 3 7 6 4 5 4 3 3 4 7 11 12 12 13 13 12 11 10 10 9 9 10 12 13 12 12 12 13 14 15 16 17 17 17 16
5 6 6 6 7 4 2 3 2 2 2 5 7 6 4 5 10 7 3 4 5 6 4 3 2 2 2 1 3 5 5 4 5 5 4 4 5 6 9 12 13 13 12 12 11 10 10 10 9 9 10 11 11 11 11 11 12 13 13 13 15 16 15
7 8 7 6 6 3 2 3 3 3 3 4 7 6 3 4 9 7 4 3 4 8 5 4 3 2 1 3 4 2 0 2 5 6 6 6 6 6 9 13 15 13 11 11 12 12 12 12 12 11 10 11 11 11 9 8 8 8 9 11 13 15 16
9 9 8 7 4 2 3 0 3 2 3 5 6 4 1 3 5 6 4 5 9 9 4 3 2 1 2 6 10 9 6 5 7 7 8 8 7 8 11 17 19 18 16 15 15 14 14 14 14 14 13 12 12 11 9 9 8 6 5 6 8 10 13
7 7 8 7 4 1 2 2 1 0 3 5 3 1 1 1 3 5 6 5 5 5 4 2 2 5 7 8 11 12 9 9 10 9 10 11 10 10 13 17 20 22 24 23 21 18 17 17 16 15 14 15 14 13 14 14 12 11 9 7 6 6 6
6 7 7 7 3 0 1 2 1 2 3 3 2 1 2 1 3 5 4 3 2 2 7 6 3 6 9 8 10 13 12 12 13 12 12 12 12 12 13 15 17 21 25 26 24 22 22 23 21 17 17 20 20 19 20 19 16 15 15 14 13 14 14
5 6 4 2 1 2 2 2 2 1 1 1 3 4 3 3 5 5 3 1 2 0 7 10 8 8 10 9 9 11 13 13 14 14 15 15 14 15 16 17 18 22 24 25 25 25 25 26 25 23 22 24 24 24 24 22 20 19 19 18 18 18 19
5 6 3 1 2 3 3 4 4 3 2 2 4 7 8 6 4 3 4 2 1 1 3 7 9 10 13 12 7 5 8 12 15 16 16 17 17 17 18 19 22 26 28 28 28 28 28 28 28 27 26 26 27 26 24 23 22 21 21 21 21 21 21
4 5 5 2 3 4 4 4 4 3 5 6 5 6 8 6 3 3 4 1 3 3 2 5 9 13 16 14 9 4 5 9 14 16 17 18 19 19 19 21 24 30 33 33 33 32 30 29 29 28 27 26 26 25 23 22 22 22 22 22 23 23 23
3 2 3 2 2 3 4 5 4 4 5 6 5 6 6 5 4 3 1 2 5 5 6 10 16 18 18 17 16 14 12 11 13 15 16 18 19 20 21 22 23 27 30 32 32 31 29 27 27 27 27 27 27 27 25 24 24 24 24 25 25 24 23
6 4 2 2 3 3 4 6 6 5 4 3 3 5 5 5 4 2 3 6 7 7 10 15 18 19 18 19 21 21 17 14 13 15 17 18 19 20 21 21 22 23 25 27 27 27 25 23 22 22 24 24 24 25 24 23 24 25 26 27 26 24 23
8 6 4 5 5 5 5 4 4 3 3 2 3 4 4 5 4 3 5 6 7 9 12 16 19 19 19 20 20 21 19 16 14 15 17 19 20 21 21 22 23 23 23 24 25 25 24 22 21 21 21 21 21 21 20 20 20 21 22 23 22 20 20
6 3 2 3 4 3 3 2 1 0 2 3 3 3 3 4 4 4 5 7 9 10 13 17 20 22 22 21 21 22 21 18 16 15 15 18 20 21 22 24 24 23 22 24 26 25 24 23 22 21 20 19 19 18 18 18 18 18 18 18 17 16 16
3 2 2 3 3 2 3 2 2 1 1 3 3 3 3 3 4 5 6 10 13 14 15 17 20 22 23 22 24 26 26 23 20 15 13 15 19 21 23 24 24 23 22 23 24 24 22 21 20 20 19 18 17 17 17 16 16 17 16 16 16 15 15
2 3 3 3 2 4 6 4 3 2 2 2 1 2 3 4 4 5 7 13 18 19 18 18 19 21 21 22 25 29 30 28 23 16 13 15 19 22 23 23 23 23 22 22 22 22 21 21 20 20 19 18 17 17 17 15 15 15 14 14 15 14 14
2 5 6 6 7 8 8 7 5 4 4 3 2 2 4 6 7 7 11 17 21 22 21 20 19 21 23 25 26 27 28 27 22 18 16 16 18 21 23 21 21 21 21 20 20 20 20 20 20 20 19 18 17 16 16 17 17 17 15 14 14 13 12